Location: Peterborough
(44.3091°N, 78.3197°W)
Time: 05:09:56
(UTC-04:00)

Tiros 1 - Pass Details

Date: 03 April 2023
Orbit: 627 x 661 km, 48.4° (Epoch: 09 June)

Event Time Altitude Azimuth Distance (km) Brightness Sun altitude
Rises 04:46:00 0° 261° (W) 2,972 - -21.8°
Reaches altitude 10° 04:48:21 10° 265° (W) 2,066 - -21.4°
Exits shadow 04:51:41 42° 285° (WNW) 938 7.6 -20.9°
Maximum altitude 04:53:06 62° 346° (NNW) 741 7.4 -20.7°
Drops below altitude 10° 04:57:52 10° 68° (ENE) 2,079 10.9 -20.0°
Sets 05:00:15 0° 72° (ENE) 2,992 12.1 -19.6°
